Location: Gorze? G�rny
(49.8500°N, 19.5000°E)
Time: 04:18:18
(UTC+00:00)

Cosmos 2341 Rocket - Pass Details

Date: 13 May 2021
Orbit: 968 x 1004 km, 82.9° (Epoch: 23 June)

Event Time Altitude Azimuth Distance (km) Brightness Sun altitude
Rises 21:04:09 0° 349° (N) 3,745 8.6 -18.4°
Reaches altitude 10° 21:06:41 10° 349° (NNW) 2,791 7.6 -18.6°
Maximum altitude 21:13:07 81° 263° (W) 1,023 4.1 -19.0°
Enters shadow 21:16:31 30° 180° (S) 1,716 4.8 -19.2°
